Location: Unspecified
(0.0000°N, 0.0000°E)
Time: 22:15:20
(UTC+00:00)

Transit 4A - All Passes

Search period start: 01 October 2020 00:00
Search period end: 11 October 2020 00:00
Orbit: 862 x 982 km, 66.8° (Epoch: 01 October)

Date Brightness Start Highest point End Pass type
(mag) Time Alt. Az. Time Alt. Az. Time Alt. Az.
01 Oct - 06:48:50 10° NNE 06:53:29 22° ENE 06:58:03 10° ESE daylight
01 Oct - 08:34:05 10° NW 08:39:35 32° WSW 08:44:59 10° S daylight
01 Oct - 19:44:52 10° SSW 19:50:46 86° WNW 19:56:50 10° NNE visible
02 Oct - 06:57:05 10° N 07:02:48 37° ENE 07:08:22 10° SE daylight
02 Oct - 08:44:38 10° WNW 08:48:51 19° WSW 08:53:02 10° SSW daylight
02 Oct - 18:11:43 10° SE 18:13:59 12° ESE 18:16:17 10° E visible
02 Oct - 19:54:21 10° SW 20:00:02 50° WNW 20:05:52 10° N visible
03 Oct - 07:05:53 10° N 07:12:05 63° ENE 07:18:08 10° SSE daylight
03 Oct - 08:57:47 10° WSW 08:58:10 10° WSW 08:58:31 10° WSW daylight
03 Oct - 18:18:48 10° SSE 18:23:16 22° ESE 18:27:48 10° ENE visible
03 Oct - 20:04:18 10° SW 20:09:19 29° WNW 20:14:28 10° NNW visible
04 Oct - 07:15:05 10° NNW 07:21:22 78° WSW 07:27:27 10° SSE daylight
04 Oct - 18:27:06 10° S 18:32:32 38° ESE 18:38:05 10° NE visible
04 Oct - 20:15:01 10° WSW 20:18:38 17° WNW 20:22:20 10° NNW visible
05 Oct - 05:41:03 10° NE 05:44:27 15° ENE 05:47:49 10° ESE daylight
05 Oct - 07:24:40 10° NW 07:30:37 46° WSW 07:36:25 10° S daylight
05 Oct - 18:35:55 10° SSW 18:41:47 67° ESE 18:47:48 10° NNE visible
06 Oct - 05:48:41 10° NNE 05:53:47 26° ENE 05:58:47 10° SE daylight
06 Oct - 07:34:45 10° NW 07:39:52 27° WSW 07:44:54 10° SSW daylight
06 Oct - 18:45:10 10° SSW 18:51:02 71° WNW 18:57:05 10° NNE visible
07 Oct - 05:57:10 10° N 06:03:06 44° ENE 06:08:52 10° SE daylight
07 Oct - 07:45:42 10° WNW 07:49:09 15° WSW 07:52:34 10° SW daylight
07 Oct - 17:10:55 10° SE 17:14:16 15° ESE 17:17:40 10° ENE daylight
07 Oct - 18:54:48 10° SW 19:00:19 41° WNW 19:05:59 10° N visible
08 Oct - 06:06:07 10° NNW 06:12:22 76° ENE 06:18:28 10° SSE daylight
08 Oct - 17:18:38 10° SSE 17:23:33 27° ESE 17:28:32 10° NE daylight
08 Oct - 19:04:57 10° WSW 19:09:37 24° WNW 19:14:22 10° NNW visible
09 Oct - 06:15:27 10° NNW 06:21:38 65° WSW 06:27:39 10° S daylight
09 Oct - 17:27:09 10° S 17:32:48 47° ESE 17:38:35 10° NE daylight
09 Oct - 19:16:10 10° W 19:18:56 13° WNW 19:21:45 10° NW visible
10 Oct - 04:40:37 10° NNE 04:44:46 18° ENE 04:48:51 10° ESE visible
10 Oct - 06:25:12 10° NW 06:30:54 37° WSW 06:36:27 10° S daylight
10 Oct - 17:36:08 10° SSW 17:42:03 82° ESE 17:48:08 10° NNE daylight
